Bluefield, WV

8:19 PM EST on November 11, 2019 (GMT -0500)
Mercer County

Weather History for KBLF - October, 2019

Change the Weather History Date:

Sunday, October 13, 2019

  Actual Average Record
Temperature  
Mean Temperature 57 °F 57 °F  
Max Temperature 70 °F 66 °F 84 °F (1923)
Min Temperature 44 °F 48 °F 24 °F (1988)
Degree Days  
Heating Degree Days 8 9  
Month to date heating degree days 63 93  
Since 1 July heating degree days 91 172  
Cooling Degree Days 0 1  
Month to date cooling degree days 32 13  
Year to date cooling degree days 748 845  
Growing Degree Days 6 (Base 50)    
Moisture  
Dew Point 45 °F    
Average Humidity 70    
Maximum Humidity 100    
Minimum Humidity 40    
Precipitation  
Precipitation 0.00 in 0.08 in 1.19 in (1944)
Month to date precipitation 1.24 1.09  
Year to date precipitation 29.77 32.62  
Snow  
Snow 0.00 in - - ()
Month to date snowfall 0.0  
Since 1 July snowfall 0.0  
Since 1 September snowfall 0.0  
Snow Depth 0.00 in    
Sea Level Pressure  
Sea Level Pressure 30.05 in    
Wind  
Wind Speed 4 mph (WSW)    
Max Wind Speed 14 mph    
Max Gust Speed 19 mph    
Visibility 6 miles    
Events Fog    
T = Trace of Precipitation, MM = Missing Value Source: NWS Daily Summary

Daily Weather History Graph

Daily Weather History Graph

Search for Another Location

Airport or City:

Astronomy

Oct. 13, 2019 Rise Set
Actual Time 7:30 AM EDT 6:50 PM EDT
Civil Twilight 7:04 AM EDT 7:17 PM EDT
Nautical Twilight 6:34 AM EDT 7:47 PM EDT
Astronomical Twilight 6:04 AM EDT 8:17 PM EDT
Moon 7:11 PM EDT (10/13) 7:05 AM EDT (10/13)
Length of Visible Light 12h 12m
Length of Day
11h 20m
Full, 100% of the Moon is Illuminated
Oct 13
Full
Oct 13
Full
Oct 21
Last Quarter
Oct 27
New
Nov 4
First Quarter

Hourly Weather History & Observations

Time (EDT) Temp. Windchill Dew Point Humidity Pressure Visibility Wind Dir Wind Speed Gust Speed Precip Events Conditions
12:04 AM 45.0 °F 43.5 °F 45.0 °F 100% 30.10 in 2.0 mi WSW 3.5 mph - N/A   Overcast
12:08 AM 45.0 °F - 45.0 °F 100% 30.10 in 1.0 mi Calm Calm - N/A   Overcast
12:15 AM 45.0 °F - 45.0 °F 100% 30.10 in 0.5 mi Calm Calm - N/A Fog Fog
12:52 AM 45.0 °F - 45.0 °F 100% 30.09 in 0.2 mi Calm Calm - N/A Fog Fog
1:52 AM 45.0 °F - 45.0 °F 100% 30.08 in 0.5 mi Calm Calm - N/A Fog Fog
2:52 AM 44.1 °F - 44.1 °F 100% 30.08 in 0.2 mi Calm Calm - N/A Fog Fog
3:52 AM 44.1 °F - 44.1 °F 100% 30.07 in 0.2 mi Calm Calm - N/A Fog Fog
4:47 AM 44.6 °F - 44.6 °F 100% 30.08 in 3.0 mi Calm Calm - N/A   Overcast
4:52 AM 45.0 °F - 45.0 °F 100% 30.06 in 4.0 mi Calm Calm - N/A   Overcast
5:19 AM 44.1 °F - 44.1 °F 100% 30.08 in 1.8 mi Calm Calm - N/A   Overcast
5:24 AM 44.1 °F - 44.1 °F 100% 30.08 in 0.8 mi Calm Calm - N/A   Mist
5:52 AM 45.0 °F 43.5 °F 45.0 °F 100% 30.06 in 0.5 mi ESE 3.5 mph - N/A Fog Fog
6:52 AM 44.1 °F - 44.1 °F 100% 30.08 in 0.2 mi Calm Calm - N/A Fog Fog
7:52 AM 44.1 °F - 44.1 °F 100% 30.07 in 0.2 mi Calm Calm - N/A Fog Fog
8:52 AM 46.0 °F - 46.0 °F 100% 30.08 in 0.5 mi Calm Calm - N/A Fog Fog
8:58 AM 46.0 °F 44.8 °F 46.0 °F 100% 30.09 in 1.2 mi ESE 3.5 mph - N/A   Overcast
9:02 AM 46.0 °F - 46.0 °F 100% 30.09 in 4.0 mi Calm Calm - N/A   Overcast
9:19 AM 46.9 °F - 46.9 °F 100% 30.08 in 10.0 mi ENE 3.5 mph - N/A   Overcast
9:52 AM 48.9 °F - 48.0 °F 97% 30.07 in 10.0 mi Variable 4.6 mph - N/A   Mostly Cloudy
10:52 AM 60.1 °F - 52.0 °F 75% 30.04 in 10.0 mi Variable 4.6 mph - N/A   Partly Cloudy
11:52 AM 61.0 °F - 53.1 °F 75% 30.04 in 10.0 mi Variable 4.6 mph - N/A   Mostly Cloudy
12:18 PM 62.1 °F - 54.0 °F 75% 30.06 in 10.0 mi Variable 3.5 mph - N/A   Overcast
12:52 PM 64.0 °F - 54.0 °F 70% 30.01 in 10.0 mi Calm Calm - N/A   Mostly Cloudy
1:52 PM 68.0 °F - 50.0 °F 52% 29.98 in 10.0 mi WSW 12.7 mph 18.4 mph N/A   Partly Cloudy
2:52 PM 68.0 °F - 48.9 °F 50% 29.96 in 10.0 mi North - - N/A   Mostly Cloudy
3:52 PM 66.9 °F - 46.9 °F 49% 29.95 in 10.0 mi West 6.9 mph - N/A   Clear
4:52 PM 66.9 °F - 41.0 °F 39% 29.96 in 10.0 mi WNW 9.2 mph - N/A   Clear
5:52 PM 64.0 °F - 42.1 °F 45% 29.99 in 10.0 mi WNW 4.6 mph - N/A   Clear
6:52 PM 60.1 °F - 42.1 °F 51% 29.99 in 10.0 mi West 3.5 mph - N/A   Clear
7:52 PM 57.9 °F - 37.9 °F 47% 30.01 in 10.0 mi WNW 3.5 mph - N/A   Clear
8:52 PM 55.9 °F - 39.0 °F 53% 30.01 in 10.0 mi SW 3.5 mph - N/A   Clear
9:52 PM 54.0 °F - 37.9 °F 55% 30.02 in 10.0 mi SW 4.6 mph - N/A   Clear
10:52 PM 51.1 °F - 39.0 °F 63% 30.01 in 10.0 mi WSW 4.6 mph - N/A   Clear
11:52 PM 50.0 °F - 39.0 °F 66% 30.01 in 10.0 mi West 8.1 mph - N/A   Clear